• Join FlightAware (Why Join?)
  • Login
  • US Flag 
04:05AM EDT


 

Airport Tracker/Info


-or-


 

Live Flight TrackerFlight Track Log ✈ WIS700 ✈ 11-Jul-2013 ✈ KDPA - KOSH

Flight Track Log - Related Links

Times and Time Zones

All times are in EDT time to prevent confusion due to time zone crossing. See the WIS700 flight status page for this flight to view local times or setup timezone preferences in your user account.

Time Position Orientation Groundspeed Altitude Reporting Facility
EDT Latitude Longitude Course Direction KTS MPH feet Rate Location/Type
12:24AM 41.9667 -88.2500 360° North 126 145 3,000  Level Chicago TRACON
12:25AM 41.9981 -88.2539 355° North 130 150 3,500 600 Climbing Chicago Center
12:26AM 42.0356 -88.2564 357° North 133 153 4,100 240 Climbing Chicago Center
12:27AM 42.0828 -88.2631 354° North 163 188 4,000 -60 Descending Chicago Center
12:28AM 42.1297 -88.2719 352° North 169 194 4,000  Level Chicago Center
12:29AM 42.1778 -88.2772 355° North 172 198 4,000  Level Chicago Center
12:30AM 42.2247 -88.2892 349° North 173 199 4,000  Level Chicago Center
12:31AM 42.2708 -88.3022 348° North 172 198 4,000  Level Chicago Center
12:32AM 42.3192 -88.3053 357° North 172 198 4,000  Level Chicago Center
12:33AM 42.3711 -88.3058 360° North 173 199 4,000  Level Chicago Center
12:34AM 42.4197 -88.3072 359° North 174 200 4,000  Level Chicago Center
12:35AM 42.4689 -88.3119 356° North 176 203 4,000  Level Chicago Center
12:36AM 42.5164 -88.3211 352° North 174 200 4,000  Level Chicago Center
12:37AM 42.5639 -88.3308 351° North 173 199 4,000  Level Chicago Center
12:38AM 42.6114 -88.3422 350° North 173 199 4,100  Climbing Chicago Center
12:39AM 42.6586 -88.3575 347° North 173 199 4,100  Level Chicago Center
12:40AM 42.7075 -88.3686 351° North 175 201 4,100  Level Chicago Center
12:41AM 42.7544 -88.3803 350° North 174 200 4,100  Level Chicago Center
12:42AM 42.8025 -88.3867 354° North 174 200 4,100 -60 Level Chicago Center
12:43AM 42.8597 -88.3936 355° North 176 203 4,000  Descending Chicago Center
12:44AM 42.9083 -88.3981 356° North 175 201 4,100  Climbing Chicago Center
12:45AM 42.9567 -88.4044 354° North 175 201 4,100  Level Chicago Center
12:46AM 43.0061 -88.4106 355° North 176 203 4,100  Level Chicago Center
12:47AM 43.0539 -88.4156 356° North 174 200 4,100  Level Chicago Center
12:48AM 43.1022 -88.4219 354° North 174 200 4,100  Level Chicago Center
12:49AM 43.1500 -88.4303 353° North 174 200 4,100  Level Chicago Center
12:50AM 43.1994 -88.4361 355° North 176 203 4,100  Level Chicago Center
12:51AM 43.2469 -88.4436 353° North 174 200 4,100  Level Chicago Center
12:52AM 43.2953 -88.4478 356° North 174 200 4,100  Level Chicago Center
12:53AM 43.3439 -88.4522 356° North 174 200 4,100  Level Chicago Center
12:54AM 43.3894 -88.4581 355° North 175 201 4,100 -60 Level Chicago Center
12:55AM 43.4425 -88.4619 357° North 178 205 4,000 -120 Descending Chicago Center